[[[{"header":{"parameterUnit":"kt","parameterCategory":2,"dx":1,"dy":1,"la1":30.253999710083008,"la2":30.299108505249023,"lo1":-89.0895004272461,"lo2":-89.04439544677734,"nx":28,"ny":28,"refTime":"2022-10-07T21:00:00:Z","depth":"0","parameterNumber":2,"parameterNumberName":"U-component_of_CURRENTS"},"data":[0.4578,0.4529,0.4566,0.4515,0.4562,0.4587,0.4675,0.4865,0.5211,0.5733,0.6268,0.6732,0.7857,0.9147,0.9823,0.9866,0.9239,0.8969,0.8617,0.9356,0.9348,0.934,0.9232,0.9398,0.9397,0.7639,0.7626,0.7615,0.47,0.4728,0.4757,0.48,0.482,0.4951,0.5146,0.5225,0.5436,0.5935,0.6284,0.7297,0.8197,0.9092,1.0148,1.0116,0.9815,0.9906,0.9225,0.9083,1.0005,0.9936,1.0255,1.0256,1.0256,1.0256,1.0256,1.0256,0.4926,0.492,0.4978,0.5005,0.5084,0.5186,0.5231,0.5483,0.5695,0.6073,0.6462,0.6957,0.7992,0.9085,0.9427,1.0084,0.9609,1.0036,0.982,0.9322,0.9068,0.9917,1.0353,1.0351,1.035,1.0349,1.0348,0,0.5089,0.5133,0.5185,0.5232,0.5291,0.5389,0.5547,0.5641,0.6015,0.6234,0.6619,0.6947,0.781,0.8451,0.9176,0.956,0.9365,0.9816,0.959,0.9447,0.8847,0.8701,0.9485,0.9885,0.988,0.9877,0.9875,0.9873,0.5252,0.5264,0.5407,0.5428,0.5497,0.5587,0.5675,0.5945,0.6098,0.6539,0.667,0.7169,0.756,0.832,0.8867,0.9402,0.9056,0.9706,0.9601,0.9346,0.9164,0.8639,0.8471,0.9827,0.9833,0.9838,0.9842,0,0.5329,0.5449,0.5508,0.5694,0.5733,0.5773,0.5982,0.6089,0.6333,0.6565,0.6675,0.7142,0.7614,0.8021,0.8501,0.8717,0.8937,0.9196,0.9213,0.9282,0.9283,0.907,0.8832,0.8663,0.9527,0.9532,0.9535,0,0.5506,0.5539,0.5717,0.5751,0.581,0.6009,0.6107,0.6289,0.654,0.6708,0.7009,0.7216,0.7633,0.7968,0.8211,0.8636,0.8652,0.8808,0.8881,0.8926,0.8934,0.8817,0.8606,0.8796,0.8794,0.8791,0.8789,0,0.5589,0.575,0.5801,0.5861,0.6089,0.6149,0.6274,0.6525,0.6638,0.6926,0.7048,0.7387,0.7562,0.7842,0.816,0.81,0.8568,0.8526,0.8753,0.8759,0.8909,0.892,0.9009,0.8786,0.8785,0.8784,0.8783,0,0.575,0.5842,0.5918,0.609,0.6134,0.6214,0.6427,0.6549,0.6822,0.6936,0.7158,0.7325,0.7588,0.7581,0.7995,0.7888,0.805,0.8174,0.8191,0.8272,0.8275,0.8615,0.8878,0.8683,0.8358,0.8354,0.835,0,0.5784,0.5899,0.6032,0.6125,0.6193,0.6374,0.6489,0.6665,0.6807,0.6961,0.7154,0.7317,0.7383,0.7473,0.7614,0.782,0.7952,0.7774,0.8117,0.8127,0.8178,0.839,0.8489,0.8798,0.8297,0.8302,0.8306,0,0.5823,0.6034,0.6041,0.6099,0.6301,0.6376,0.6513,0.6685,0.6777,0.6925,0.7057,0.7267,0.735,0.7436,0.7538,0.765,0.7865,0.768,0.7688,0.7792,0.822,0.8304,0.8349,0.7924,0.793,0.7934,0.8264,0,0.5959,0.6032,0.6062,0.6222,0.6314,0.6381,0.6542,0.6631,0.672,0.6827,0.701,0.714,0.7307,0.7356,0.7413,0.7596,0.7619,0.7627,0.7583,0.7685,0.7815,0.7849,0.7441,0.7441,0.744,0.7439,0,0,0.5939,0.6042,0.6172,0.625,0.6318,0.6461,0.6521,0.6618,0.6768,0.6833,0.6832,0.7108,0.7179,0.7372,0.7405,0.7445,0.7534,0.7395,0.7621,0.7641,0.7659,0.7788,0.7821,0.7438,0.7438,0.7437,0.7437,0,0.6004,0.6097,0.6149,0.6244,0.6379,0.6474,0.6504,0.6645,0.6697,0.6816,0.6904,0.7025,0.7149,0.7246,0.7318,0.7426,0.747,0.7448,0.745,0.761,0.763,0.7649,0.7779,0.7809,0.7435,0.7436,0.7436,0,0.6046,0.6152,0.6189,0.6346,0.6423,0.6512,0.6571,0.6655,0.6725,0.6799,0.6884,0.6981,0.7091,0.7194,0.724,0.7209,0.7412,0.7312,0.7318,0.7298,0.7461,0.7485,0.7506,0.7237,0.7236,0.7236,0,0,0.6089,0.6163,0.6316,0.6367,0.6417,0.6542,0.6597,0.6659,0.6761,0.6799,0.6861,0.6942,0.7055,0.709,0.7168,0.7248,0.731,0.7287,0.7296,0.7303,0.7288,0.7452,0.7474,0.7233,0.7233,0.7232,0,0,0.6101,0.6274,0.6315,0.6391,0.6493,0.6629,0.6656,0.6726,0.6815,0.6813,0.6885,0.6904,0.7011,0.7029,0.6985,0.7139,0.7103,0.7114,0.7116,0.7128,0.7138,0.71,0.6965,0,0,0,0,0,0.6228,0.6258,0.6295,0.6325,0.6498,0.6615,0.6639,0.6714,0.6738,0.6763,0.6846,0.6836,0.7023,0.6984,0.7002,0.7043,0.7192,0.7199,0.7206,0.7232,0.7244,0.7255,0,0,0,0,0,0,0.624,0.6276,0.6295,0.6431,0.6472,0.6614,0.6639,0.6661,0.6735,0.674,0.6827,0.6838,0.6868,0.6976,0.6992,0.7031,0.6959,0.7195,0.7201,0.7207,0.7236,0.7246,0.7255,0,0,0,0,0,0.6251,0.6279,0.6534,0.6431,0.6466,0.6583,0.6637,0.6655,0.6714,0.6787,0.6802,0.6768,0.6868,0.6884,0.6985,0.7023,0.6949,0.6954,0.7199,0.7204,0.7208,0.7241,0,0,0,0,0,0,0.6259,0.6293,0.6543,0.6557,0.6415,0.6576,0.6601,0.665,0.6756,0.6773,0.6728,0.673,0.6868,0.6881,0.6893,0.702,0.694,0.6946,0.6949,0.7203,0.7206,0.721,0,0,0,0,0,0,0.6279,0.6304,0.655,0.6526,0.6538,0.6569,0.6592,0.6656,0.6755,0.6689,0.6696,0.6727,0.6836,0.6879,0.6888,0.6987,0.6933,0.6939,0.6943,0.6945,0.7206,0.7209,0,0,0,0,0,0,0.6291,0.6313,0.6522,0.6531,0.6542,0.6704,0.6625,0.6786,0.6771,0.6681,0.6768,0.6767,0.6832,0.6844,0.6885,0.6979,0.6985,0.6933,0.6937,0.694,0.6942,0,0,0,0,0,0,0,0.6301,0.6133,0.6463,0.6536,0.6545,0.669,0.6693,0.6697,0.677,0.6769,0.6768,0.6767,0.6901,0.6907,0.6913,0.6973,0,0,0.6933,0.6935,0,0,0,0,0,0,0,0,0.6126,0.6131,0.6463,0.6467,0.647,0.6691,0.6693,0.6696,0.677,0.6769,0.6768,0.6768,0.6902,0.6907,0.6913,0,0,0,0,0,0,0,0,0,0,0,0,0,0,0,0.6464,0.6466,0,0.6691,0.6693,0.6696,0.677,0.6769,0.6769,0.6768,0.6904,0.6908,0.6912,0,0,0,0,0,0,0,0,0,0,0,0,0,0,0,0,0,0,0,0,0,0,0,0,0,0,0,0,0,0,0,0,0,0,0,0,0,0,0,0,0,0,0,0,0,0,0,0,0,0,0,0,0,0,0,0,0,0,0,0,0,0,0,0,0,0,0,0,0]}],[{"header":{"parameterUnit":"kt","parameterCategory":2,"dx":1,"dy":1,"la1":30.253999710083008,"la2":30.299108505249023,"lo1":-89.0895004272461,"lo2":-89.04439544677734,"nx":28,"ny":28,"refTime":"2022-10-07T21:00:00:Z","depth":"0","parameterNumber":3,"parameterNumberName":"V-component_of_CURRENTS"},"data":[0.2059,0.218,0.2265,0.2496,0.2619,0.2797,0.2903,0.3069,0.3277,0.3688,0.4038,0.4285,0.4246,0.1902,0.0177,-0.0476,-0.1228,-0.1298,-0.1829,-0.1129,-0.1084,-0.1042,-0.1042,-0.1494,-0.1497,-0.2463,-0.2474,-0.2482,0.2041,0.2135,0.2257,0.2431,0.2564,0.2632,0.2804,0.2918,0.3061,0.3254,0.3329,0.3529,0.2783,0.2024,0.0927,0.0034,-0.0319,-0.0463,-0.0491,-0.0718,0.021,0.0266,0.0085,0.0085,0.0085,0.0086,0.0086,0.0086,0.2026,0.2088,0.2218,0.2349,0.2468,0.2618,0.2713,0.2828,0.2936,0.3046,0.299,0.3074,0.2697,0.1936,0.1267,0.0424,0.0295,0.0226,-0.0092,-0.0126,-0.037,0.0682,0.0478,0.0476,0.0475,0.0473,0.0472,0,0.2034,0.2088,0.2174,0.2314,0.2413,0.2532,0.2646,0.27,0.2774,0.2802,0.2814,0.276,0.2308,0.1981,0.1375,0.0998,0.0406,0.062,0.0293,0.0162,0.0143,-0.0179,0.086,0.073,0.0729,0.0729,0.0729,0.0728,0.2049,0.2092,0.2239,0.2306,0.2362,0.2463,0.2536,0.2603,0.2652,0.2659,0.2669,0.2486,0.239,0.1815,0.1359,0.0887,0.0551,0.0633,0.0625,0.037,0.0004,-0.005,-0.0272,0.0724,0.0725,0.0725,0.0725,0,0.207,0.2133,0.2217,0.2333,0.2375,0.2434,0.254,0.2581,0.2591,0.2606,0.2599,0.2481,0.223,0.1918,0.1497,0.122,0.0671,0.0727,0.0952,0.089,0.0382,0.0115,-0.0271,-0.0561,0.0412,0.0409,0.0407,0,0.211,0.2158,0.2264,0.2294,0.2383,0.2422,0.2483,0.2496,0.2503,0.2514,0.2418,0.2377,0.2069,0.185,0.1569,0.1188,0.1195,0.0887,0.0795,0.0948,0.0956,0.0597,0.0325,0.0868,0.087,0.0871,0.0873,0,0.2102,0.2191,0.2255,0.2276,0.2347,0.2381,0.2416,0.2399,0.2408,0.2363,0.2354,0.2184,0.2087,0.1831,0.1531,0.1523,0.1185,0.1111,0.0868,0.0862,0.0865,0.0863,0.0573,0.0875,0.0876,0.0876,0.0877,0,0.2108,0.2159,0.2226,0.2301,0.2311,0.234,0.2361,0.2369,0.2314,0.2283,0.2202,0.2099,0.1957,0.1868,0.155,0.1623,0.1414,0.1253,0.1239,0.1101,0.1001,0.0985,0.0989,0.0696,0.1048,0.1051,0.1053,0,0.209,0.2152,0.2165,0.2223,0.2246,0.2228,0.2244,0.2219,0.2178,0.2141,0.2015,0.1947,0.1846,0.1796,0.1684,0.148,0.137,0.1477,0.1093,0.1082,0.1065,0.1062,0.1211,0.1023,0.1081,0.1078,0.1075,0,0.2054,0.2102,0.2104,0.213,0.2123,0.213,0.2135,0.2112,0.2105,0.2023,0.1999,0.1864,0.1788,0.1704,0.1584,0.1479,0.1408,0.1375,0.1363,0.1321,0.1155,0.1105,0.1081,0.1325,0.1323,0.1321,0.1098,0,0.2032,0.206,0.2074,0.2074,0.208,0.2088,0.2041,0.2027,0.1977,0.192,0.1848,0.1713,0.1589,0.1543,0.1466,0.1387,0.1329,0.1256,0.1178,0.1213,0.1106,0.109,0.1225,0.1221,0.1218,0.1215,0,0,0.1978,0.2005,0.1978,0.1993,0.1989,0.1925,0.1942,0.1906,0.1813,0.1784,0.1743,0.1555,0.1447,0.1355,0.1357,0.1294,0.1208,0.1267,0.1196,0.1195,0.1193,0.1096,0.1084,0.121,0.1209,0.1207,0.1206,0,0.1948,0.1952,0.1973,0.1963,0.1929,0.1889,0.1896,0.182,0.1777,0.1741,0.1614,0.1535,0.1407,0.13,0.1232,0.126,0.1126,0.1215,0.1296,0.1173,0.1177,0.1178,0.1085,0.1076,0.1199,0.1199,0.1199,0,0.1894,0.1876,0.1883,0.187,0.1832,0.1829,0.1745,0.1728,0.1715,0.1566,0.1508,0.1419,0.1275,0.1215,0.1175,0.1125,0.1034,0.1071,0.1083,0.1086,0.0954,0.0958,0.0962,0.0915,0.0915,0.0916,0,0,0.1866,0.1883,0.1831,0.1853,0.1842,0.1766,0.1747,0.1694,0.1617,0.1582,0.1478,0.1355,0.1274,0.1212,0.1127,0.1076,0.0978,0.1047,0.1061,0.1072,0.1083,0.0954,0.0958,0.0916,0.0916,0.0916,0,0,0.1831,0.1787,0.1765,0.1787,0.1758,0.167,0.1668,0.1619,0.1548,0.1521,0.1384,0.135,0.1294,0.119,0.1215,0.1088,0.1016,0.101,0.1187,0.1201,0.1214,0.1254,0.1094,0,0,0,0,0,0.1763,0.1801,0.1783,0.1777,0.1719,0.1696,0.1684,0.1596,0.1544,0.1557,0.1447,0.1364,0.1157,0.1177,0.1153,0.1158,0.0925,0.0923,0.0922,0.1136,0.1153,0.1167,0,0,0,0,0,0,0.1761,0.1757,0.178,0.1701,0.1686,0.1693,0.1591,0.1568,0.154,0.1526,0.1388,0.136,0.126,0.1182,0.1162,0.1169,0.11,0.0924,0.0923,0.0922,0.1142,0.1155,0.1167,0,0,0,0,0,0.1758,0.1755,0.1692,0.1698,0.1686,0.1582,0.1588,0.1568,0.1543,0.1402,0.1373,0.1479,0.1265,0.1238,0.1169,0.118,0.1113,0.1106,0.0923,0.0922,0.0921,0.1148,0,0,0,0,0,0,0.1756,0.1729,0.1686,0.1677,0.1674,0.1579,0.1565,0.1569,0.1417,0.1392,0.1484,0.1475,0.1268,0.1247,0.1228,0.1191,0.1124,0.1117,0.1112,0.0922,0.0922,0.0921,0,0,0,0,0,0,0.173,0.1724,0.1682,0.1656,0.1643,0.1577,0.1564,0.1502,0.1414,0.1507,0.1495,0.1481,0.1273,0.1254,0.1238,0.1147,0.1132,0.1125,0.112,0.1117,0.0922,0.0921,0,0,0,0,0,0,0.1725,0.1719,0.1657,0.1648,0.1637,0.1533,0.1516,0.1447,0.1442,0.1513,0.1434,0.143,0.128,0.1263,0.1246,0.1162,0.1151,0.1132,0.1127,0.1124,0.1122,0,0,0,0,0,0,0,0.1721,0.1791,0.1738,0.1641,0.1631,0.1598,0.1596,0.1593,0.1441,0.1438,0.1435,0.1432,0.117,0.1163,0.1155,0.1175,0,0,0.1132,0.1129,0,0,0,0,0,0,0,0,0.179,0.1791,0.1737,0.1736,0.1734,0.1598,0.1596,0.1594,0.1441,0.1438,0.1435,0.1433,0.1168,0.1162,0.1156,0,0,0,0,0,0,0,0,0,0,0,0,0,0,0,0.1737,0.1736,0,0.1597,0.1596,0.1594,0.144,0.1438,0.1436,0.1434,0.1167,0.1162,0.1157,0,0,0,0,0,0,0,0,0,0,0,0,0,0,0,0,0,0,0,0,0,0,0,0,0,0,0,0,0,0,0,0,0,0,0,0,0,0,0,0,0,0,0,0,0,0,0,0,0,0,0,0,0,0,0,0,0,0,0,0,0,0,0,0,0,0,0,0,0]}]],[[{"header":{"parameterUnit":"kt","parameterCategory":2,"dx":1,"dy":1,"la1":30.253999710083008,"la2":30.299108505249023,"lo1":-89.0895004272461,"lo2":-89.04439544677734,"nx":28,"ny":28,"refTime":"2022-10-07T21:00:00:Z","depth":"2","parameterNumber":2,"parameterNumberName":"U-component_of_CURRENTS"},"data":[0.2705,0.275,0.2778,0.2831,0.2925,0.2984,0.3036,0.3034,0.3002,0.285,0.2714,0.2822,0.2964,0.2396,0.2413,0.2326,0.262,0.2198,0.3593,0.321,0.3288,0.355,0.3144,0,0,0,0,0,0.2711,0.277,0.2859,0.2971,0.303,0.3153,0.3295,0.33,0.3443,0.3536,0.3739,0.3282,0.3251,0.3435,0.31,0.3176,0.2942,0.3263,0.2891,0.2978,0.3057,0.274,0.2193,0.2191,0.219,0.2188,0,0,0.2735,0.278,0.2885,0.3005,0.3128,0.3227,0.3299,0.3481,0.3685,0.3923,0.4225,0.4321,0.4289,0.4212,0.4271,0.4246,0.4523,0.4362,0.4379,0.4412,0.4173,0.4023,0.3999,0.4008,0.4016,0.4023,0.4029,0,0.2758,0.2815,0.2893,0.3038,0.316,0.329,0.3469,0.3581,0.3861,0.411,0.4426,0.4664,0.4966,0.4818,0.5077,0.5036,0.5054,0.4963,0.5909,0.4145,0.3983,0.3976,0.3993,0.3996,0.4005,0.4012,0.4017,0.4021,0.2781,0.2827,0.2997,0.3068,0.3148,0.3309,0.3425,0.365,0.379,0.4226,0.4342,0.48,0.5047,0.5511,0.5392,0.5568,0.586,0.5167,0.4823,0.5508,0.5512,0.5478,0.5447,0.4123,0.411,0.4099,0.4091,0,0.279,0.2877,0.298,0.3143,0.3202,0.3295,0.3537,0.3659,0.389,0.4144,0.4245,0.4582,0.4941,0.5188,0.5487,0.546,0.5645,0.5701,0.4938,0.488,0.546,0.5428,0.5774,0.5775,0.5776,0.5776,0.5777,0,0.2831,0.2904,0.3039,0.309,0.3213,0.3331,0.3498,0.3621,0.3852,0.403,0.4225,0.4417,0.4643,0.492,0.5022,0.5276,0.5379,0.5263,0.5302,0.4649,0.4588,0.5087,0.505,0.5376,0.5373,0.537,0.5368,0,0.2815,0.2957,0.3045,0.3097,0.3256,0.3343,0.3443,0.3641,0.3774,0.3992,0.4149,0.4352,0.4529,0.4695,0.4911,0.4824,0.5253,0.514,0.5201,0.5198,0.4595,0.4529,0.5365,0.5364,0.5364,0.5363,0.5362,0,0.2844,0.2917,0.303,0.3167,0.3208,0.3288,0.3484,0.3587,0.3798,0.3895,0.4072,0.4164,0.438,0.4325,0.4654,0.4563,0.4691,0.4765,0.4781,0.4658,0.4609,0.4238,0.4356,0.4935,0.493,0.4926,0.4922,0,0.2805,0.2914,0.2979,0.3099,0.3168,0.3276,0.3378,0.3514,0.3632,0.378,0.3891,0.4024,0.4024,0.4116,0.4242,0.4368,0.4518,0.4334,0.4603,0.4609,0.4539,0.4784,0.4067,0.4313,0.4867,0.4873,0.4877,0,0.2769,0.2895,0.2916,0.2975,0.3108,0.3162,0.3289,0.3425,0.3522,0.3639,0.3781,0.39,0.3961,0.3997,0.4048,0.416,0.4425,0.4174,0.4177,0.4318,0.478,0.4715,0.4747,0.447,0.4475,0.448,0.4833,0,0.2788,0.2856,0.2888,0.2989,0.3056,0.3128,0.3216,0.3305,0.3381,0.3452,0.3612,0.3662,0.3775,0.3819,0.3824,0.4019,0.4043,0.4002,0.3941,0.4091,0.4224,0.426,0.3788,0.3784,0.3781,0.3779,0,0,0.2741,0.2806,0.2855,0.2917,0.2978,0.3043,0.3112,0.3171,0.3274,0.3342,0.334,0.3513,0.3534,0.368,0.3742,0.3746,0.3839,0.3747,0.3998,0.4023,0.4045,0.4181,0.4218,0.3774,0.3772,0.3771,0.377,0,0.2737,0.2788,0.2832,0.2889,0.2981,0.3022,0.3054,0.3138,0.3192,0.3288,0.3316,0.3408,0.3481,0.3535,0.3566,0.37,0.373,0.3737,0.3832,0.3969,0.3998,0.4023,0.4162,0.4198,0.3763,0.3763,0.3764,0,0.2721,0.2769,0.2795,0.2875,0.2925,0.2986,0.2998,0.3072,0.3137,0.3129,0.3234,0.3276,0.3301,0.3404,0.3447,0.3411,0.3641,0.3528,0.3543,0.3508,0.3643,0.3676,0.3705,0.3334,0.3333,0.3332,0,0,0.2721,0.2765,0.2832,0.2877,0.291,0.2972,0.3011,0.3052,0.3105,0.3135,0.3172,0.3215,0.3269,0.3309,0.3332,0.3416,0.3441,0.3481,0.3501,0.3519,0.3495,0.3632,0.3663,0.3329,0.3329,0.3328,0,0,0.2713,0.2784,0.2813,0.2863,0.2925,0.2975,0.3017,0.3052,0.3112,0.3131,0.3138,0.3147,0.3243,0.3225,0.3181,0.3339,0.3248,0.3256,0.3378,0.3402,0.3422,0.3389,0.3138,0,0,0,0,0,0.2745,0.2773,0.2799,0.2816,0.29,0.2961,0.2974,0.3027,0.3048,0.3082,0.3125,0.3102,0.3213,0.3174,0.3178,0.3274,0.3285,0.3293,0.33,0.3473,0.3499,0.3521,0,0,0,0,0,0,0.2752,0.2769,0.2798,0.2846,0.2867,0.2959,0.2963,0.2977,0.3046,0.3053,0.3096,0.3101,0.3096,0.317,0.3174,0.3267,0.3136,0.3288,0.3294,0.33,0.3482,0.3503,0.3521,0,0,0,0,0,0.2757,0.2771,0.2894,0.2847,0.2865,0.2942,0.2963,0.2975,0.3034,0.3049,0.3059,0.308,0.3095,0.3101,0.3172,0.3267,0.3133,0.3135,0.3292,0.3297,0.3302,0.3492,0,0,0,0,0,0,0.2762,0.2773,0.2899,0.2907,0.2853,0.2939,0.2953,0.2973,0.3027,0.3038,0.3028,0.3032,0.3094,0.3099,0.3104,0.3271,0.3131,0.3133,0.3134,0.3296,0.33,0.3304,0,0,0,0,0,0,0.2766,0.2778,0.2902,0.2907,0.2916,0.2937,0.2949,0.2963,0.3025,0.3,0.3007,0.3029,0.3084,0.3097,0.3101,0.3121,0.3129,0.3131,0.3132,0.3132,0.3299,0.3303,0,0,0,0,0,0,0.2772,0.2783,0.2905,0.2912,0.2919,0.3007,0.2949,0.3027,0.305,0.2995,0.3052,0.3054,0.3081,0.3086,0.3099,0.3117,0.312,0.3129,0.313,0.3131,0.3131,0,0,0,0,0,0,0,0.2777,0.2693,0.2859,0.2915,0.2922,0.2981,0.2983,0.2984,0.305,0.3051,0.3052,0.3053,0.312,0.3122,0.3124,0.3114,0,0,0.3129,0.313,0,0,0,0,0,0,0,0,0.269,0.2692,0.286,0.2862,0.2864,0.2982,0.2983,0.2984,0.305,0.3051,0.3052,0.3053,0.3121,0.3122,0.3123,0,0,0,0,0,0,0,0,0,0,0,0,0,0,0,0.286,0.2862,0,0.2982,0.2983,0.2984,0.305,0.3051,0.3052,0.3052,0.3121,0.3122,0.3123,0,0,0,0,0,0,0,0,0,0,0,0,0,0,0,0,0,0,0,0,0,0,0,0,0,0,0,0,0,0,0,0,0,0,0,0,0,0,0,0,0,0,0,0,0,0,0,0,0,0,0,0,0,0,0,0,0,0,0,0,0,0,0,0,0,0,0,0,0]}],[{"header":{"parameterUnit":"kt","parameterCategory":2,"dx":1,"dy":1,"la1":30.253999710083008,"la2":30.299108505249023,"lo1":-89.0895004272461,"lo2":-89.04439544677734,"nx":28,"ny":28,"refTime":"2022-10-07T21:00:00:Z","depth":"2","parameterNumber":3,"parameterNumberName":"V-component_of_CURRENTS"},"data":[0.0969,0.1096,0.1168,0.1468,0.1626,0.1901,0.2075,0.2441,0.2488,0.2553,0.2301,0.2032,0.0933,0.0211,-0.0404,-0.0774,-0.0807,-0.0809,-0.0639,-0.0652,-0.0639,-0.1095,-0.1099,0,0,0,0,0,0.092,0.1006,0.1161,0.1333,0.1519,0.1574,0.1845,0.2046,0.2404,0.2456,0.2632,0.1727,0.1134,0.0373,-0.0499,-0.0979,-0.1041,-0.1064,-0.1136,-0.1131,-0.1126,-0.1132,-0.1174,-0.1174,-0.1175,-0.1175,0,0,0.083,0.091,0.0992,0.1146,0.1295,0.1491,0.1645,0.1831,0.207,0.2326,0.226,0.2155,0.1345,0.0385,-0.0095,-0.0645,-0.0673,-0.0986,-0.0987,-0.0987,-0.0984,-0.0914,-0.0988,-0.0987,-0.0986,-0.0985,-0.0984,0,0.0736,0.0752,0.0823,0.0982,0.1093,0.1236,0.1356,0.148,0.1519,0.1691,0.1855,0.1861,0.1376,0.0798,0.0122,-0.0234,-0.0727,-0.0806,-0.0687,-0.105,-0.0979,-0.1035,-0.103,-0.1071,-0.1071,-0.107,-0.107,-0.107,0.0588,0.0651,0.0735,0.0815,0.0839,0.0942,0.1029,0.1022,0.1114,0.1213,0.1305,0.1214,0.119,0.0697,0.008,-0.0415,-0.0494,-0.0783,-0.0967,-0.0826,-0.0883,-0.0882,-0.0881,-0.1064,-0.1065,-0.1066,-0.1066,0,0.0508,0.0507,0.061,0.0643,0.0672,0.0745,0.082,0.0894,0.0868,0.0989,0.0991,0.086,0.069,0.0331,-0.0052,-0.0361,-0.0661,-0.0755,-0.0746,-0.0804,-0.0889,-0.0886,-0.0899,-0.0897,-0.0896,-0.0896,-0.0895,0,0.0372,0.0442,0.0449,0.0493,0.0605,0.0545,0.0641,0.0596,0.0593,0.0681,0.0476,0.0533,0.0131,-0.0007,-0.0319,-0.0568,-0.0581,-0.0858,-0.0917,-0.0982,-0.0983,-0.1002,-0.1005,-0.0971,-0.0971,-0.0971,-0.0971,0,0.0258,0.0297,0.0375,0.0379,0.0382,0.0404,0.0396,0.0336,0.0368,0.0287,0.0339,0.0127,0.0102,-0.0171,-0.0422,-0.0497,-0.0657,-0.0806,-0.0917,-0.0913,-0.1029,-0.1034,-0.0971,-0.0971,-0.0971,-0.0971,-0.0971,0,0.013,0.016,0.0233,0.027,0.0274,0.028,0.0282,0.0262,0.018,0.0142,0.005,-0.006,-0.0175,-0.0305,-0.0547,-0.0529,-0.0692,-0.0824,-0.083,-0.0833,-0.0927,-0.098,-0.0966,-0.0909,-0.0909,-0.0908,-0.0908,0,0.0048,0.0101,0.0053,0.0109,0.014,0.0057,0.0048,-0.0003,-0.0059,-0.0075,-0.0224,-0.0278,-0.0429,-0.0455,-0.0559,-0.0722,-0.0784,-0.076,-0.0959,-0.0961,-0.0904,-0.0872,-0.0946,-0.0958,-0.0903,-0.0903,-0.0904,0,-0.0027,-0.0048,-0.0045,-0.0016,-0.0083,-0.0086,-0.0117,-0.0156,-0.0141,-0.0249,-0.0239,-0.0425,-0.048,-0.0555,-0.0674,-0.0747,-0.0775,-0.0838,-0.0846,-0.0809,-0.091,-0.0869,-0.0869,-0.0889,-0.0889,-0.089,-0.09,0,-0.0103,-0.0097,-0.0095,-0.0125,-0.015,-0.0145,-0.0224,-0.0245,-0.0289,-0.0343,-0.0423,-0.056,-0.0655,-0.072,-0.0801,-0.0858,-0.0881,-0.0969,-0.0984,-0.0968,-0.0975,-0.0977,-0.0979,-0.0981,-0.0983,-0.0985,0,0,-0.0156,-0.0155,-0.0227,-0.0226,-0.0238,-0.0325,-0.0305,-0.0358,-0.0437,-0.0454,-0.0493,-0.0675,-0.0774,-0.0866,-0.0877,-0.0943,-0.0982,-0.092,-0.0982,-0.0981,-0.098,-0.0985,-0.0986,-0.0988,-0.0989,-0.0989,-0.099,0,-0.0192,-0.0234,-0.0225,-0.0258,-0.0308,-0.0357,-0.0353,-0.0423,-0.0452,-0.05,-0.0603,-0.0679,-0.0807,-0.0891,-0.0955,-0.0963,-0.1027,-0.1008,-0.0908,-0.0995,-0.0991,-0.0989,-0.0992,-0.0991,-0.0994,-0.0994,-0.0994,0,-0.024,-0.0282,-0.029,-0.0348,-0.0392,-0.0408,-0.047,-0.0492,-0.0503,-0.0621,-0.0657,-0.0755,-0.088,-0.0948,-0.0984,-0.0994,-0.1054,-0.1052,-0.1046,-0.101,-0.1102,-0.1098,-0.1094,-0.1133,-0.1133,-0.1133,0,0,-0.0264,-0.0278,-0.0353,-0.0363,-0.0384,-0.0454,-0.0478,-0.0511,-0.0581,-0.0607,-0.0682,-0.0773,-0.0868,-0.0906,-0.0995,-0.1041,-0.1078,-0.1062,-0.1056,-0.105,-0.1012,-0.11,-0.1097,-0.1132,-0.1132,-0.1132,0,0,-0.0284,-0.0359,-0.0384,-0.04,-0.0448,-0.0534,-0.0541,-0.0575,-0.0636,-0.0639,-0.0745,-0.0771,-0.0843,-0.0904,-0.0881,-0.0995,-0.1031,-0.1038,-0.093,-0.0924,-0.0918,-0.0848,-0.095,0,0,0,0,0,-0.0355,-0.0348,-0.037,-0.0383,-0.047,-0.052,-0.0532,-0.0593,-0.0609,-0.0609,-0.0691,-0.0738,-0.0923,-0.0905,-0.0927,-0.0929,-0.1121,-0.1123,-0.1125,-0.1001,-0.0993,-0.0987,0,0,0,0,0,0,-0.0361,-0.0376,-0.0371,-0.0454,-0.0475,-0.052,-0.0572,-0.0589,-0.0611,-0.0617,-0.0722,-0.0742,-0.0817,-0.0899,-0.0918,-0.0917,-0.0944,-0.1122,-0.1123,-0.1125,-0.0999,-0.0992,-0.0986,0,0,0,0,0,-0.0366,-0.0378,-0.0497,-0.0455,-0.0473,-0.0554,-0.0573,-0.0587,-0.0601,-0.0716,-0.0736,-0.0643,-0.0815,-0.0837,-0.091,-0.0907,-0.0932,-0.0938,-0.1123,-0.1124,-0.1125,-0.0995,0,0,0,0,0,0,-0.0369,-0.0393,-0.0502,-0.0511,-0.0458,-0.0552,-0.0567,-0.0585,-0.07,-0.0719,-0.0644,-0.0649,-0.0814,-0.0831,-0.0847,-0.0899,-0.0922,-0.0929,-0.0933,-0.1124,-0.1125,-0.1126,0,0,0,0,0,0,-0.0387,-0.0399,-0.0507,-0.0506,-0.0515,-0.055,-0.0564,-0.0631,-0.0702,-0.0622,-0.0629,-0.0645,-0.0803,-0.0827,-0.084,-0.0941,-0.0914,-0.092,-0.0925,-0.0928,-0.1125,-0.1125,0,0,0,0,0,0,-0.0394,-0.0404,-0.0505,-0.0511,-0.0519,-0.0617,-0.0613,-0.0706,-0.0676,-0.0617,-0.0678,-0.0679,-0.0798,-0.0812,-0.0834,-0.093,-0.0938,-0.0914,-0.0919,-0.0922,-0.0924,0,0,0,0,0,0,0,-0.0399,-0.031,-0.0453,-0.0515,-0.0522,-0.0588,-0.0591,-0.0593,-0.0676,-0.0677,-0.0678,-0.0679,-0.0877,-0.0884,-0.0891,-0.092,0,0,-0.0913,-0.0917,0,0,0,0,0,0,0,0,-0.0308,-0.031,-0.0454,-0.0455,-0.0457,-0.0589,-0.0591,-0.0592,-0.0677,-0.0677,-0.0678,-0.0679,-0.0879,-0.0884,-0.089,0,0,0,0,0,0,0,0,0,0,0,0,0,0,0,-0.0454,-0.0455,0,-0.0589,-0.0591,-0.0592,-0.0677,-0.0677,-0.0678,-0.0678,-0.088,-0.0885,-0.089,0,0,0,0,0,0,0,0,0,0,0,0,0,0,0,0,0,0,0,0,0,0,0,0,0,0,0,0,0,0,0,0,0,0,0,0,0,0,0,0,0,0,0,0,0,0,0,0,0,0,0,0,0,0,0,0,0,0,0,0,0,0,0,0,0,0,0,0,0]}]],[[{"header":{"parameterUnit":"kt","parameterCategory":2,"dx":1,"dy":1,"la1":30.253999710083008,"la2":30.299108505249023,"lo1":-89.0895004272461,"lo2":-89.04439544677734,"nx":28,"ny":28,"refTime":"2022-10-07T21:00:00:Z","depth":"4","parameterNumber":2,"parameterNumberName":"U-component_of_CURRENTS"},"data":[0.0644,0.0703,0.0726,0.0788,0.0847,0.0931,0.1004,0.1122,0.1139,0.1366,0.1338,0.1572,0.1539,0.1669,0.1585,0.1601,0.1658,0.1751,0.1748,0.1903,0.1917,0.193,0.1875,0,0,0,0,0,0.0691,0.0703,0.0787,0.0892,0.1019,0.1082,0.1231,0.1324,0.1522,0.1511,0.1674,0.1648,0.1673,0.1687,0.162,0.1749,0.18,0.1669,0.1793,0.1912,0.1928,0.1868,0,0,0,0,0,0,0.0736,0.0765,0.0882,0.1009,0.1138,0.1192,0.1281,0.1406,0.1505,0.1786,0.1765,0.1858,0.1978,0.1912,0.1858,0.1831,0.1826,0.1819,0.1839,0.1855,0.1791,0.1759,0.16,0,0,0,0,0,0.0793,0.0879,0.0957,0.1105,0.1237,0.1334,0.1514,0.1563,0.1779,0.1965,0.2012,0.2059,0.2031,0.2014,0.1986,0.1932,0.2107,0.2029,0.2038,0.2041,0.2036,0.1995,0.2001,0.199,0.1992,0.1994,0.1994,0,0.0871,0.0926,0.1112,0.1187,0.1308,0.1495,0.1571,0.1785,0.1879,0.2102,0.2115,0.2225,0.2283,0.2129,0.2166,0.2113,0.2071,0.2071,0.2074,0.2062,0.2017,0.2019,0.202,0.2008,0.2006,0.2005,0.2004,0,0.0907,0.1017,0.1116,0.131,0.138,0.1487,0.1713,0.1797,0.1999,0.2128,0.2209,0.2346,0.2351,0.2377,0.2349,0.2303,0.222,0.2154,0.2302,0.2259,0.2046,0.2041,0.2029,0.2024,0.202,0.2017,0.2014,0,0.0984,0.1052,0.1251,0.129,0.1403,0.1537,0.1686,0.1799,0.1983,0.2069,0.2247,0.2294,0.2405,0.2411,0.239,0.2301,0.2371,0.2198,0.215,0.2275,0.227,0.2213,0.22,0.2322,0.2322,0.2322,0.2322,0,0.1003,0.1141,0.1232,0.1274,0.1402,0.1522,0.1618,0.1781,0.1873,0.2086,0.2171,0.2294,0.2378,0.2377,0.2378,0.2381,0.2345,0.2321,0.2165,0.2155,0.2208,0.2195,0.2322,0.2322,0.2322,0.2322,0.2322,0,0.1054,0.1125,0.1225,0.1341,0.1369,0.1455,0.1622,0.1703,0.1875,0.1978,0.213,0.2185,0.2315,0.2287,0.2335,0.233,0.2314,0.2271,0.2269,0.2084,0.1991,0.2068,0.2211,0.221,0.221,0.2209,0.2208,0,0.105,0.1144,0.1198,0.1292,0.1338,0.143,0.151,0.1625,0.175,0.1878,0.1968,0.2074,0.2105,0.2182,0.2221,0.2195,0.2233,0.2215,0.2124,0.2121,0.1974,0.2069,0.2184,0.2198,0.2199,0.22,0.2201,0,0.103,0.1139,0.1157,0.1206,0.1292,0.1329,0.1449,0.1553,0.1644,0.1768,0.1888,0.1996,0.2053,0.2077,0.2099,0.2126,0.2213,0.2101,0.2097,0.2093,0.2214,0.2074,0.2066,0.2177,0.2179,0.218,0.2194,0,0.1067,0.1116,0.1146,0.1205,0.1248,0.1298,0.1364,0.1454,0.1548,0.161,0.174,0.1784,0.188,0.1904,0.1922,0.2015,0.1985,0.193,0.1882,0.1984,0.1977,0.1983,0.1866,0.1863,0.1861,0.1859,0,0,0.1036,0.1071,0.1094,0.1141,0.1184,0.122,0.1264,0.132,0.1417,0.149,0.1514,0.1645,0.167,0.1753,0.1829,0.1819,0.1809,0.1849,0.194,0.195,0.1958,0.1957,0.1965,0.1855,0.1854,0.1853,0.1852,0,0.1026,0.1054,0.1079,0.111,0.1176,0.1197,0.1221,0.129,0.1353,0.1451,0.1464,0.1542,0.1614,0.1648,0.1666,0.1782,0.173,0.1801,0.1929,0.192,0.1933,0.1944,0.1945,0.1955,0.1846,0.1847,0.1847,0,0.0998,0.1032,0.1038,0.108,0.1117,0.1151,0.1165,0.1227,0.1284,0.128,0.1402,0.1423,0.1435,0.1523,0.1561,0.1546,0.1669,0.1642,0.1654,0.1652,0.1638,0.1654,0.1668,0.148,0.1479,0.1478,0,0,0.0996,0.1019,0.1044,0.1077,0.1097,0.1141,0.1173,0.1205,0.1255,0.1285,0.1332,0.1382,0.141,0.1457,0.1465,0.1548,0.151,0.1601,0.1618,0.1632,0.1639,0.1628,0.1644,0.1475,0.1475,0.1475,0,0,0.0993,0.1023,0.1034,0.1067,0.1097,0.1134,0.1177,0.1203,0.1261,0.1295,0.1303,0.1313,0.1387,0.1386,0.1344,0.148,0.1404,0.1412,0.1504,0.1525,0.1542,0.1546,0.1302,0,0,0,0,0,0.0991,0.1012,0.1022,0.1033,0.1086,0.1119,0.1129,0.1181,0.1218,0.1236,0.1294,0.127,0.1379,0.1341,0.1343,0.1418,0.1432,0.1439,0.1447,0.1579,0.1601,0.162,0,0,0,0,0,0,0.0995,0.1004,0.1022,0.1055,0.107,0.1118,0.1142,0.1155,0.1217,0.1225,0.1264,0.1269,0.1266,0.1338,0.134,0.1413,0.1301,0.1435,0.1441,0.1447,0.1586,0.1605,0.1621,0,0,0,0,0,0.0998,0.1006,0.1077,0.1056,0.1069,0.1139,0.1142,0.1154,0.1207,0.1222,0.1231,0.1253,0.1265,0.127,0.1339,0.1413,0.13,0.1301,0.1439,0.1444,0.1449,0.1595,0,0,0,0,0,0,0.1001,0.1008,0.1081,0.1088,0.1069,0.1139,0.1149,0.1153,0.1201,0.1212,0.1206,0.1211,0.1263,0.1268,0.1271,0.1417,0.1298,0.1299,0.13,0.1443,0.1447,0.1451,0,0,0,0,0,0,0.1006,0.1013,0.1084,0.1097,0.1106,0.1139,0.1148,0.1152,0.1199,0.118,0.1187,0.1207,0.1258,0.1266,0.1269,0.1273,0.1297,0.1298,0.1299,0.1299,0.1446,0.1449,0,0,0,0,0,0,0.101,0.1016,0.1096,0.1102,0.1109,0.1183,0.1143,0.1192,0.1225,0.1176,0.1229,0.1231,0.1255,0.1259,0.1267,0.127,0.1272,0.1297,0.1298,0.1298,0.1299,0,0,0,0,0,0,0,0.1014,0.0954,0.105,0.1106,0.1112,0.1151,0.1152,0.1154,0.1225,0.1227,0.1228,0.123,0.1292,0.1293,0.1294,0.1267,0,0,0.1297,0.1298,0,0,0,0,0,0,0,0,0.0954,0.0954,0.105,0.1052,0.1053,0.1152,0.1152,0.1153,0.1225,0.1227,0.1228,0.1229,0.1293,0.1293,0.1294,0,0,0,0,0,0,0,0,0,0,0,0,0,0,0,0.105,0.1052,0,0.1152,0.1152,0.1153,0.1226,0.1227,0.1228,0.1229,0.1293,0.1293,0.1294,0,0,0,0,0,0,0,0,0,0,0,0,0,0,0,0,0,0,0,0,0,0,0,0,0,0,0,0,0,0,0,0,0,0,0,0,0,0,0,0,0,0,0,0,0,0,0,0,0,0,0,0,0,0,0,0,0,0,0,0,0,0,0,0,0,0,0,0,0]}],[{"header":{"parameterUnit":"kt","parameterCategory":2,"dx":1,"dy":1,"la1":30.253999710083008,"la2":30.299108505249023,"lo1":-89.0895004272461,"lo2":-89.04439544677734,"nx":28,"ny":28,"refTime":"2022-10-07T21:00:00:Z","depth":"4","parameterNumber":3,"parameterNumberName":"V-component_of_CURRENTS"},"data":[0.0211,0.0263,0.0286,0.0381,0.0425,0.0507,0.0548,0.0558,0.0549,0.0526,0.0365,0.0283,-0.0017,0.0104,-0.0318,-0.0376,-0.0466,-0.076,-0.0763,-0.0905,-0.0906,-0.0907,-0.0906,0,0,0,0,0,0.0201,0.023,0.0286,0.0353,0.0427,0.0454,0.0532,0.0549,0.0561,0.0538,0.0488,0.0319,0.0014,-0.014,-0.0309,-0.041,-0.0667,-0.0613,-0.0726,-0.0906,-0.0907,-0.0905,0,0,0,0,0,0,0.0189,0.0209,0.0264,0.0313,0.0379,0.0445,0.0459,0.0489,0.0505,0.0456,0.0428,0.0199,0.0053,-0.0232,-0.0389,-0.0562,-0.0631,-0.0676,-0.069,-0.0693,-0.0657,-0.0617,-0.0522,0,0,0,0,0,0.0181,0.0192,0.0225,0.0293,0.0326,0.0374,0.0407,0.0438,0.0427,0.0393,0.0319,0.0134,-0.0038,-0.0301,-0.0468,-0.064,-0.0819,-0.0843,-0.0846,-0.0918,-0.091,-0.0913,-0.0913,-0.0912,-0.0912,-0.0912,-0.0912,0,0.0169,0.0187,0.0232,0.026,0.026,0.0273,0.0304,0.0281,0.0303,0.0235,0.0238,0.0057,-0.0095,-0.0315,-0.0542,-0.0767,-0.0809,-0.0845,-0.0921,-0.0912,-0.0915,-0.0915,-0.0915,-0.0913,-0.0913,-0.0913,-0.0913,0,0.0163,0.0181,0.0211,0.0229,0.0234,0.0236,0.0247,0.0254,0.0193,0.0172,0.0121,-0.0069,-0.0241,-0.0424,-0.0612,-0.0726,-0.0839,-0.087,-0.0852,-0.0854,-0.0917,-0.0917,-0.0915,-0.0915,-0.0914,-0.0914,-0.0914,0,0.0158,0.0173,0.0188,0.02,0.0224,0.0202,0.0201,0.016,0.0108,0.01,-0.0096,-0.0163,-0.0414,-0.0525,-0.069,-0.0823,-0.0815,-0.0925,-0.0927,-0.0938,-0.0938,-0.0914,-0.0911,-0.0942,-0.0942,-0.0942,-0.0942,0,0.0127,0.0153,0.0181,0.0182,0.0186,0.0175,0.0163,0.0104,0.0094,-0.005,-0.0105,-0.0295,-0.0421,-0.0545,-0.0754,-0.0786,-0.086,-0.0892,-0.0929,-0.0928,-0.0913,-0.091,-0.0942,-0.0942,-0.0942,-0.0942,-0.0942,0,0.0097,0.0115,0.0154,0.0148,0.0149,0.0153,0.0111,0.0102,0.0004,-0.008,-0.023,-0.0361,-0.0529,-0.0627,-0.0786,-0.0792,-0.0884,-0.0929,-0.093,-0.0893,-0.0895,-0.0889,-0.0931,-0.0931,-0.0931,-0.0931,-0.0931,0,0.0051,0.0088,0.0075,0.0098,0.0106,0.0048,0.0057,0.0002,-0.0085,-0.0166,-0.0317,-0.0422,-0.0569,-0.069,-0.0769,-0.0871,-0.0913,-0.0911,-0.0906,-0.0905,-0.0889,-0.0923,-0.0933,-0.093,-0.093,-0.0931,-0.0931,0,0.0004,0.0001,-0.0001,-0.0007,-0.0037,-0.0043,-0.0048,-0.0089,-0.012,-0.0247,-0.0312,-0.0477,-0.0616,-0.0662,-0.0784,-0.0831,-0.091,-0.0893,-0.0892,-0.0886,-0.0934,-0.0923,-0.0923,-0.0933,-0.0933,-0.0933,-0.093,0,-0.0057,-0.0059,-0.0046,-0.0057,-0.0069,-0.0076,-0.0123,-0.0166,-0.0255,-0.0317,-0.0422,-0.0546,-0.0659,-0.0708,-0.079,-0.0859,-0.086,-0.0858,-0.0846,-0.0877,-0.0873,-0.0874,-0.0851,-0.085,-0.0849,-0.0849,0,0,-0.012,-0.0111,-0.0149,-0.0141,-0.0156,-0.0238,-0.0225,-0.0258,-0.0345,-0.0384,-0.0445,-0.0595,-0.0664,-0.0728,-0.0794,-0.0805,-0.0812,-0.0827,-0.0866,-0.0868,-0.087,-0.0867,-0.0868,-0.0847,-0.0847,-0.0847,-0.0846,0,-0.0139,-0.0172,-0.0152,-0.0172,-0.0226,-0.0255,-0.0265,-0.0334,-0.0376,-0.0434,-0.0504,-0.0602,-0.0663,-0.0719,-0.0751,-0.0793,-0.0796,-0.0822,-0.0852,-0.0859,-0.0862,-0.0865,-0.0863,-0.0865,-0.0844,-0.0844,-0.0844,0,-0.0189,-0.0216,-0.0213,-0.0246,-0.028,-0.0277,-0.035,-0.0381,-0.0392,-0.0475,-0.0517,-0.0594,-0.0638,-0.0695,-0.0721,-0.072,-0.078,-0.0775,-0.078,-0.0758,-0.0763,-0.0767,-0.0771,-0.072,-0.0719,-0.0719,0,0,-0.021,-0.0205,-0.0253,-0.0255,-0.0267,-0.0333,-0.0356,-0.0401,-0.0449,-0.0476,-0.0529,-0.0585,-0.0627,-0.0662,-0.0684,-0.073,-0.0713,-0.0762,-0.0767,-0.0772,-0.0754,-0.076,-0.0764,-0.0718,-0.0718,-0.0718,0,0,-0.0218,-0.0254,-0.0292,-0.0288,-0.0323,-0.0373,-0.0382,-0.0432,-0.0483,-0.0508,-0.0557,-0.057,-0.062,-0.0632,-0.0615,-0.0702,-0.0676,-0.0679,-0.071,-0.0717,-0.0723,-0.0696,-0.063,0,0,0,0,0,-0.0264,-0.0244,-0.0278,-0.0287,-0.0339,-0.0356,-0.0366,-0.0426,-0.0474,-0.0473,-0.0538,-0.055,-0.064,-0.0625,-0.0631,-0.0673,-0.0704,-0.0707,-0.0709,-0.0756,-0.0764,-0.077,0,0,0,0,0,0,-0.0267,-0.0274,-0.0279,-0.0325,-0.0339,-0.0357,-0.0413,-0.0429,-0.0475,-0.0484,-0.0541,-0.055,-0.0574,-0.0623,-0.0628,-0.0669,-0.0628,-0.0705,-0.0707,-0.0709,-0.0759,-0.0765,-0.077,0,0,0,0,0,-0.027,-0.0276,-0.0342,-0.0326,-0.0338,-0.0414,-0.0414,-0.0428,-0.0468,-0.0512,-0.0525,-0.0515,-0.0572,-0.0581,-0.0626,-0.0667,-0.0625,-0.0626,-0.0707,-0.0708,-0.071,-0.0762,0,0,0,0,0,0,-0.0273,-0.0288,-0.0346,-0.0353,-0.034,-0.0415,-0.0426,-0.0427,-0.0495,-0.0508,-0.0486,-0.0491,-0.0571,-0.0578,-0.0584,-0.0666,-0.0622,-0.0624,-0.0625,-0.0708,-0.0709,-0.071,0,0,0,0,0,0,-0.0286,-0.0292,-0.035,-0.0363,-0.0372,-0.0415,-0.0425,-0.0438,-0.0494,-0.0464,-0.0471,-0.0487,-0.0562,-0.0575,-0.058,-0.0599,-0.062,-0.0621,-0.0623,-0.0623,-0.0709,-0.071,0,0,0,0,0,0,-0.029,-0.0296,-0.0361,-0.0368,-0.0376,-0.0456,-0.0428,-0.0478,-0.0512,-0.0459,-0.0517,-0.0519,-0.0558,-0.0564,-0.0577,-0.0593,-0.0597,-0.062,-0.0621,-0.0622,-0.0622,0,0,0,0,0,0,0,-0.0294,-0.0233,-0.0308,-0.0372,-0.0379,-0.0418,-0.042,-0.0422,-0.0512,-0.0514,-0.0516,-0.0518,-0.0609,-0.0611,-0.0613,-0.0589,0,0,-0.062,-0.062,0,0,0,0,0,0,0,0,-0.0233,-0.0233,-0.0309,-0.031,-0.0312,-0.0419,-0.042,-0.0421,-0.0513,-0.0514,-0.0516,-0.0517,-0.061,-0.0612,-0.0613,0,0,0,0,0,0,0,0,0,0,0,0,0,0,0,-0.0309,-0.031,0,-0.0419,-0.042,-0.0421,-0.0513,-0.0514,-0.0515,-0.0517,-0.061,-0.0612,-0.0613,0,0,0,0,0,0,0,0,0,0,0,0,0,0,0,0,0,0,0,0,0,0,0,0,0,0,0,0,0,0,0,0,0,0,0,0,0,0,0,0,0,0,0,0,0,0,0,0,0,0,0,0,0,0,0,0,0,0,0,0,0,0,0,0,0,0,0,0,0]}]]]